Location: Luxembourg
(49.6117°N, 6.1300°E)
Time: 19:14:52
(UTC+02:00)

Tiangong 2 - Pass Details

Date: 21 May 2019
Orbit: 376 x 388 km, 42.8° (Epoch: 16 June)

Event Time Altitude Azimuth Distance (km) Brightness Sun altitude
Rises 23:32:48 0° 247° (WSW) 2,232 5.0 -15.3°
Reaches altitude 10° 23:35:06 10° 232° (SW) 1,381 3.8 -15.5°
Enters shadow 23:36:03 16° 218° (SW) 1,091 3.1 -15.5°
